Location: Pedholt
(56.0260°N, 10.2097°E)
Time: 07:08:03
(UTC+00:00)

SR - Pass Details

Date: 28 July 2021
Orbit: 581 x 874 km, 66.7° (Epoch: 24 September)

Event Time Altitude Azimuth Distance (km) Brightness Sun altitude
Rises 13:58:36 0° 315° (NW) 3,225 ? 43.1°
Reaches altitude 10° 14:01:05 10° 316° (NW) 2,249 ? 42.8°
Maximum altitude 14:06:12 85° 45° (NE) 698 ? 42.2°
Drops below altitude 10° 14:10:51 10° 135° (SE) 2,049 ? 41.7°
Sets 14:13:02 0° 136° (SE) 2,917 ? 41.4°
